(556) Phyllis
ephemeris date magn radius delta ra dec elong phase
Today4 Sep 202614.82.708 AU2.611 AU16h13m-22°57'84.6°21.8°
Opposition10 Sep 202712.82.553 AU1.551 AU23h02m+02°03'172.4°3.0°
(556) Phyllis - 2026-09-04
astro.vanbuitenen.nl


 
-1 year
-1 month
-1 day
Now
+1 day
+1 month
+1 year

The interactive orbit chart above shows the body's path through the solar system and its position at the given date. Green and blue lines are shown perpendicular to the ecliptic plane: Green if the path is above the ecliptic plane, blue if it is below. (Left-click and drag to rotate the view; Right-click and drag to move the view; Use scroll wheel to zoom in our out.)

The orbital elements of Phyllis are:

            e (Eccentricity)                : 0.1037877
            a (Semimajor axis)              : 2.4643068
            i (Inclination)                 : 5.24937
            Ω (Longitude of ascending node) : 285.97155
            ω (Argument of perihelion)      : 177.24163
            M (Mean anomaly)                : 138.51492
            Epoch                           : 2026 Jun 09

            L (Longitude of perihelion)     : 283.22473
            B (Latitude of perihelion)      : 0.25227
            P (Orbital period in years)     : 3.87            
        

The light curve chart below shows the estimated development of the minor planet's magnitude.


The all-sky chart below shows the path of the minor planet over the same period as the light curve. The current position is marked yellow.





The following chart shows the path of the minor planet in the next few days. The field of view is optimized for (~10x50) binoculars and finderscopes.




Ephemerides:
Date       Time       RA (2000)    DEC (2000)    delta   radius  elong  phase   PA    magn
2026-09-04 00:00 UT   16 13 50.2   -22 57 38     2.611    2.708   84.6   21.8   100   14.8 
2026-09-04 13:59 UT   16 14 27.7   -22 58 13     2.619    2.708   84.1   21.7   100   14.8 
2026-09-05 00:00 UT   16 14 54.7   -22 58 38     2.624    2.709   83.8   21.7   100   14.8 
2026-09-06 00:00 UT   16 16 00.1   -22 59 39     2.638    2.709   83.1   21.7   100   14.8 
2026-09-07 00:00 UT   16 17 06.4   -23 00 41     2.651    2.709   82.4   21.6   100   14.8 
2026-09-08 00:00 UT   16 18 13.5   -23 01 45     2.665    2.709   81.7   21.6   100   14.8 
2026-09-09 00:00 UT   16 19 21.4   -23 02 50     2.678    2.710   81.0   21.5   100   14.8 
2026-09-10 00:00 UT   16 20 30.2   -23 03 56     2.692    2.710   80.3   21.5   100   14.9 
2026-09-11 00:00 UT   16 21 39.9   -23 05 03     2.705    2.710   79.6   21.4   100   14.9 
2026-09-12 00:00 UT   16 22 50.3   -23 06 12     2.719    2.711   78.9   21.4   100   14.9 
2026-09-13 00:00 UT   16 24 01.6   -23 07 21     2.732    2.711   78.2   21.3   100   14.9 
2026-09-14 00:00 UT   16 25 13.7   -23 08 31     2.745    2.711   77.5   21.2   100   14.9 
2026-09-15 00:00 UT   16 26 26.5   -23 09 41     2.759    2.711   76.8   21.2    99   14.9 
2026-09-16 00:00 UT   16 27 40.1   -23 10 52     2.772    2.712   76.1   21.1    99   14.9 
2026-09-17 00:00 UT   16 28 54.4   -23 12 04     2.785    2.712   75.4   21.0    99   14.9 
2026-09-18 00:00 UT   16 30 09.5   -23 13 15     2.798    2.712   74.7   20.9    99   14.9 
2026-09-19 00:00 UT   16 31 25.4   -23 14 27     2.811    2.712   74.0   20.9    99   14.9 
2026-09-20 00:00 UT   16 32 41.9   -23 15 39     2.824    2.713   73.3   20.8    99   14.9 
2026-09-21 00:00 UT   16 33 59.1   -23 16 51     2.837    2.713   72.7   20.7    99   14.9 
2026-09-22 00:00 UT   16 35 17.1   -23 18 03     2.850    2.713   72.0   20.6    99   15.0 
2026-09-23 00:00 UT   16 36 35.7   -23 19 15     2.863    2.713   71.3   20.5    99   15.0 
2026-09-24 00:00 UT   16 37 55.0   -23 20 26     2.876    2.714   70.6   20.4    98   15.0 
2026-09-25 00:00 UT   16 39 14.9   -23 21 37     2.889    2.714   69.9   20.3    98   15.0 
2026-09-26 00:00 UT   16 40 35.6   -23 22 48     2.902    2.714   69.3   20.2    98   15.0 
2026-09-27 00:00 UT   16 41 56.8   -23 23 58     2.914    2.714   68.6   20.1    98   15.0 
2026-09-28 00:00 UT   16 43 18.7   -23 25 07     2.927    2.715   67.9   20.0    98   15.0 
2026-09-29 00:00 UT   16 44 41.2   -23 26 15     2.940    2.715   67.3   19.9    98   15.0 
2026-09-30 00:00 UT   16 46 04.3   -23 27 23     2.952    2.715   66.6   19.8    98   15.0 
2026-10-01 00:00 UT   16 47 28.0   -23 28 30     2.965    2.715   65.9   19.7    98   15.0 
2026-10-02 00:00 UT   16 48 52.3   -23 29 36     2.977    2.715   65.3   19.6    97   15.0 
2026-10-03 00:00 UT   16 50 17.3   -23 30 40     2.989    2.716   64.6   19.5    97   15.0 


    Terminology:
            
    delta:  distance between minor planet and earth in AU
    radius: distance between minor planet and sun in AU
    magn:   magnitude (brightness) estimate    
    ra:     right ascension in hours (24h = 360deg)
    dec:    declination in degrees
    elong:  elongation in degrees (angle sun-earth-minor planet)    
    phase:  phase angle in degrees (angle sun-minor planet-earth)        
    AU:     Astronomical Unit (mean distance between earth and sun: 149597870.7 km
    

Orbital elements provided by the MPC (Minor Planet Center).
Calculations by a modified version of AAPlus, a C# implementation of the AA+ project by PJ Naughter from the algorithms presented in the book "Astronomical Algorithms" by Jean Meeus.
NGC2000 dso catalog and star labels from VizieR as provided by the Strasbourg astronomical Data Center.
Tycho2 catalog from the ESO archive.